Regional Weather Roundup
Issued by NWS Nashville, TN

Home | Current Version | Previous Version | Text Only | Print | Product List | Glossary On
Versions: 1 2 3 4 5 6 7 8 9 10 11 12 13 14 15 16 17 18 19 20 21 22 23 24 25 26 27 28 29 30 31 32 33 34 35 36 37 38 39 40 41 42 43 44 45 46 47 48 49 50
000
ASUS44 KOHX 282110
RWROHX
MIDDLE TENNESSEE HOURLY WEATHER ROUNDUP
NATIONAL WEATHER SERVICE NASHVILLE TN
400 PM CDT WED SEP 28 2016

NOTE: "FAIR" INDICATES FEW OR NO CLOUDS BELOW 12,000 FEET WITH
NO SIGNIFICANT WEATHER AND/OR OBSTRUCTIONS TO VISIBILITY.

* THESE REPORTS ARE NOT UNDER NWS QUALITY CONTROL AND MAY NOT
  REPORT WEATHER SUCH AS PRECIPITATION AND FOG.


TNZ005>011-023>034-057-059-062>066-078-080-282200
...NORTHERN MIDDLE TENNESSEE...

CITY           SKY/WX    TMP DP  RH WIND       PRES   REMARKS
CLARKSVILLE    CLOUDY    69  54  58 NW16G25   29.89R
CROSSVILLE     SUNNY     77  42  28 VRB7      29.92F
GALLATIN       CLOUDY    79  48  34 SW9G22    29.87R
DICKSON        CLOUDY    76  53  44 NW10      29.87R
LEBANON        CLOUDY    81  45  28 SW13      29.83S
NASHVILLE      CLOUDY    80  45  28 SW10      29.85R
WEST NASHVILLE CLOUDY    79  46  31 SW12      29.84R
PORTLAND       CLOUDY    70  57  64 N9G16     29.88R
ROCKWOOD       SUNNY     79  48  33 S10       29.91
SMYRNA         PTSUNNY   82  47  29 SW12G21   29.85S
SPARTA         SUNNY     82  48  30 SW17      29.87S
SPRINGFIELD    PTSUNNY   70  55  60 NW8       29.87R
$$
TNZ056-058-060-061-075>077-079-093>097-282200
...SOUTHERN MIDDLE TENNESSEE...

CITY           SKY/WX    TMP DP  RH WIND       PRES   REMARKS
COLUMBIA       SUNNY     84  48  28 SW15      29.85F
FAYETTEVILLE   SUNNY     82  43  24 SW10G17   29.90F
LEWISBURG      SUNNY     84  47  27 SW8       29.87F
MCMINNVILLE    SUNNY     82  46  28 SW7       29.89F
MURFREESBORO   PTCLDY    83  44  25 SW15      29.85F
SHELBYVILLE    SUNNY     84  48  28 SW14      29.89F
TULLAHOMA      SUNNY     81  43  26 S13       29.91F
WINCHESTER     SUNNY     82  45  26 VRB7      29.91F
$$


...KEY TO REMARKS...
VSB - VISIBILITY IN MILES
WCI - WIND CHILL INDEX
HX  - HEAT INDEX




USA.gov is the U.S. government's official web portal to all federal, state and local government web resources and services.